Regional Weather Roundup
Issued by NWS

Home | Current Version | Previous Version | Graphics & Text | Print | Product List | Glossary On
Versions: 1 2 3 4 5 6 7 8 9 10 11 12 13 14 15 16 17 18 19 20 21 22 23 24 25 26 27 28 29 30 31 32 33 34 35 36 37 38 39 40 41 42 43 44 45 46 47 48 49 50
000
ASUS45 KCYS 261410
RWRWY

WYOMING REGIONAL WEATHER ROUNDUP
NATIONAL WEATHER SERVICE CHEYENNE WY
800 AM MDT THU APR 26 2018

NOTE:  "FAIR" INDICATES FEW OR NO CLOUDS BELOW 12,000 FEET
WITH NO SIGNIFICANT WEATHER AND/OR OBSTRUCTIONS TO VISIBILITY.

WYZ001-261500-
YELLOWSTONE NATIONAL PARK

CITY           SKY/WX    TMP DP  RH WIND       PRES   REMARKS
LK YELLOWSTONE   N/A     26  22  84 CALM      30.36R
W YELLOWSTONE  NOT AVBL

$$
WYZ002>013-054>058-071-098>099-261500-
NORTHERN WYOMING

CITY           SKY/WX    TMP DP  RH WIND       PRES   REMARKS
JACKSON        FAIR      34  26  72 NE7       30.32R WCI  28
CODY           FAIR      41  35  79 SW9       30.31R
GREYBULL       FAIR      39  34  82 E3        30.31R
WORLAND        FAIR      41  34  76 S7        30.31R
SHERIDAN       FAIR      47  33  58 CALM      30.28R
BUFFALO        FAIR      46  32  58 N7        30.29R
GILLETTE       CLOUDY    45  35  68 NW14      30.27R
HULETT         FAIR      43  32  65 N3        30.26R
NEWCASTLE      FAIR      45  30  57 NW7       30.27R

$$
WYZ014>020-022>026-101>103-261500-
CENTRAL WYOMING

CITY           SKY/WX    TMP DP  RH WIND       PRES   REMARKS
BIG PINEY      FAIR      34  21  59 VRB3      30.33R
PINEDALE       FAIR      32  23  69 S6        30.34R WCI  26
DUBOIS         FAIR      32  27  80 NW9       30.32R WCI  24
LANDER         FAIR      43  32  65 SE10      30.31R
RIVERTON       FAIR      40  29  64 E6        30.32R
CASPER         FAIR      42  34  73 W5        30.31R
DOUGLAS        FAIR      43  34  70 NW14      30.30R

$$
WYZ021-027>030-104>119-261500-
SOUTHERN WYOMING

CITY           SKY/WX    TMP DP  RH WIND       PRES   REMARKS
EVANSTON       FAIR      40  23  50 E9        30.29R WCI  34
KEMMERER       FAIR      37  28  70 E7G16     30.33R WCI  32
FORT BRIDGER   FAIR      39  27  60 E9        30.33R WCI  33
ROCK SPRINGS   FAIR      38  29  70 SE7       30.33R WCI  33
DIXON          FAIR      41  26  54 E6        30.32R
RAWLINS        PTSUNNY   37  31  78 E6        30.33R WCI  32
SARATOGA       FAIR      37  30  75 N6        30.33R WCI  33
LARAMIE        CLOUDY    34  32  92 NW14      30.29R WCI  25
CHEYENNE       CLOUDY    41  29  62 N20G29    30.26R
TORRINGTON     PTSUNNY   46  32  58 N16G26    30.23R
PINE BLUFFS    PTSUNNY   43  32  65 N21G31    30.24R

$$



USA.gov is the U.S. government's official web portal to all federal, state and local government web resources and services.